Weather History for EGJA - December, 2012

Change the Weather History Date:

Sunday, December 2, 2012

  Actual Average Record
Temperature  
Mean Temperature 45 °F -  
Max Temperature 46 °F 47 °F - ()
Min Temperature 44 °F 43 °F - ()
Degree Days  
Heating Degree Days 20    
Moisture  
Dew Point 37 °F    
Average Humidity 72    
Maximum Humidity 93    
Minimum Humidity 62    
Precipitation  
Precipitation 0.00 in - - ()
Sea Level Pressure  
Sea Level Pressure 30.05 in    
Wind  
Wind Speed 6 mph ()    
Max Wind Speed 13 mph    
Max Gust Speed -    
Visibility 6.2 miles    
Events Rain    
T = Trace of Precipitation, MM = Missing Value Source: Averaged Metar Reports

Daily Weather History Graph

Daily Weather History Graph

Search for Another Location

Airport or City:

Trip Planner

Search our weather history database for the weather conditions in past years. The results will help you decide how hot, cold, wet, or windy it might be!

Date:

Astronomy

Dec. 02, 2012 Rise Set
Actual Time 7:46 AM GMT 4:10 PM GMT
Civil Twilight 7:08 AM GMT 4:47 PM GMT
Nautical Twilight 6:28 AM GMT 5:28 PM GMT
Astronomical Twilight 5:49 AM GMT 6:07 PM GMT
Moon 7:52 PM GMT (12/2) 10:20 AM GMT (12/2)
Length of Visible Light 9h 38m
Length of Day
8h 24m
Waning Gibbous, 87% of the Moon is Illuminated
Dec 2
Waning Gibbous
Dec 6
Last Quarter
Dec 13
New
Dec 20
First Quarter
Dec 28
Full

Hourly Weather History & Observations

Time (GMT) Temp. Windchill Dew Point Humidity Pressure Visibility Wind Dir Wind Speed Gust Speed Precip Events Conditions
8:20 AM 44.6 °F 40.7 °F 35.6 °F 71% 30.06 in 6.2 mi NNW 6.9 mph - N/A   Scattered Clouds
8:50 AM 44.6 °F 39.2 °F 35.6 °F 71% 30.06 in 6.2 mi NW 10.4 mph - N/A   Partly Cloudy
9:20 AM 44.6 °F 38.4 °F 35.6 °F 71% 30.06 in 6.2 mi NNW 12.7 mph - N/A   Partly Cloudy
9:50 AM 44.6 °F 42.2 °F 37.4 °F 76% 30.09 in 6.2 mi NNE 4.6 mph - N/A   Partly Cloudy
10:20 AM 44.6 °F 40.2 °F 35.6 °F 71% 30.09 in 6.2 mi NNW 8.1 mph - N/A   Scattered Clouds
10:50 AM 44.6 °F 41.4 °F 35.6 °F 71% 30.09 in 6.2 mi NW 5.8 mph - N/A   Scattered Clouds
11:20 AM 46.4 °F 42.9 °F 35.6 °F 66% 30.09 in 6.2 mi NW 6.9 mph - N/A   Scattered Clouds
11:50 AM 46.4 °F 43.5 °F 35.6 °F 66% 30.06 in 6.2 mi WNW 5.8 mph - N/A   Partly Cloudy
12:20 PM 46.4 °F 44.3 °F 35.6 °F 66% 30.06 in 6.2 mi WNW 4.6 mph - N/A   Partly Cloudy
1:20 PM 46.4 °F 43.5 °F 33.8 °F 62% 30.06 in 6.2 mi WSW 5.8 mph - N/A   Scattered Clouds
1:50 PM 46.4 °F 43.5 °F 35.6 °F 66% 30.04 in 6.2 mi WSW 5.8 mph - N/A   Scattered Clouds
2:20 PM 46.4 °F 43.5 °F 33.8 °F 62% 30.04 in 6.2 mi SW 5.8 mph - N/A   Scattered Clouds
2:50 PM 46.4 °F 43.5 °F 35.6 °F 66% 30.04 in 6.2 mi SW 5.8 mph - N/A Rain Light Rain
3:20 PM 46.4 °F 43.5 °F 35.6 °F 66% 30.04 in 6.2 mi SW 5.8 mph - N/A   Mostly Cloudy
3:50 PM - - - N/A% - - North - - N/A   Unknown
4:20 PM 46.4 °F 43.5 °F 37.4 °F 71% 30.01 in 6.2 mi SW 5.8 mph - N/A Rain Light Rain
4:50 PM 44.6 °F 41.4 °F 39.2 °F 81% 30.01 in 6.2 mi SSW 5.8 mph - N/A Rain Rain
5:20 PM 44.6 °F 41.4 °F 41.0 °F 87% 30.01 in 6.2 mi SSW 5.8 mph - N/A Rain Rain
5:50 PM 44.6 °F 39.7 °F 42.8 °F 93% 30.01 in 6.2 mi South 9.2 mph - N/A Rain Rain
6:20 PM 44.6 °F 40.2 °F 42.8 °F 93% 30.01 in 6.2 mi South 8.1 mph - N/A Rain Rain